Content
SEND FEEDBACK

Daily
Averages
Monthly
Summary
United States of America

HINGHAM, MASSACHUSETTS


Home > North America > United States > Massachusetts
Elevation: 3 feet     Latitude: 42 14N     Longitude: 070 55W

WEATHER
 
SELECT A DAY
Number of Records: 132,954;   Date Range: 10/15/98 - 7/22/14
 
SHARE

PRINT THIS DATA

[ ← Previous Day ]
WEATHER ALMANAC - APRIL 8, 2013
[ Next Day → ]
[ °C ]   °F
Weather ElementAverageHighLow
Temperature51.8 °F64.9 °F (4:54 pm)43 °F (6:54 am)
Dewpoint37.9 °F42.1 °F (3:54 am)33.1 °F (4:54 pm)
Humidity63.2 %93 % (3:54 am)31 % (4:54 pm)
Barometer30.05 in30.12 in (9:54 pm)29.98 in (3:54 am)
Wind Speed10.2 mph18.4 mph (2:54 am)
Wind Gust24.2 mph (1:54 am)
Weather ElementAverage
Wind DirectionSSE (166.8 °)

Weather ElementTotal
Precipitation---
Heating Degree Days11.1 (Base 65)
Growing Degree Days4 (Base 50)
Averaged from 22 records on April 8, 2013
WEATHER CONDITIONS BREAKOUT
WIND DIRECTION BREAKOUT
WEATHER BY HOUR - APRIL 8, 2013
[ °C ]   °F
Local TimeTemperatureDewpointHumidityBarometerVisibilityWind DirectionWind SpeedGust SpeedPrecipitationEventsConditions
1:54 AM45.0 °F41.0 °F86 %30.00 inSouth (190°)17.3 mph24.2 mph
2:54 AM45.0 °F41.0 °F86 %29.99 inSSW (200°)18.4 mph
3:54 AM44.1 °F42.1 °F93 %29.98 inSSW (200°)16.1 mph23.0 mph
4:54 AM44.1 °F42.1 °F93 %29.98 inSSW (210°)16.1 mph23.0 mph
5:54 AM44.1 °F41.0 °F89 %30.00 inWSW (240°)11.5 mph
6:54 AM43.0 °F41.0 °F93 %30.02 inWSW (250°)10.4 mph
7:54 AM44.1 °F42.1 °F93 %30.04 inWest (260°)9.2 mph
9:54 AM50.0 °F37.9 °F63 %30.05 inWNW (300°)8.1 mph
10:54 AM53.1 °F37.0 °F55 %30.06 inVariable5.8 mph
11:54 AM55.9 °F36.0 °F47 %30.07 inNW (310°)9.2 mph
12:54 PM60.1 °F36.0 °F41 %30.06 inVariable6.9 mph
1:54 PM60.1 °F36.0 °F41 %30.07 inCalm
2:54 PM63.0 °F35.1 °F35 %30.06 inNNW (330°)8.1 mph
3:54 PM64.0 °F34.0 °F33 %30.05 inSW (230°)3.5 mph
4:54 PM64.9 °F33.1 °F31 %30.06 inCalm
5:54 PM59.0 °F37.0 °F44 %30.06 inESE (110°)10.4 mph18.4 mph
6:54 PM54.0 °F37.0 °F53 %30.09 inESE (120°)10.4 mph
7:54 PM52.0 °F36.0 °F54 %30.10 inSE (130°)12.7 mph
8:54 PM50.0 °F37.0 °F61 %30.11 inSE (140°)12.7 mph
9:54 PM48.9 °F37.0 °F64 %30.12 inSSE (150°)12.7 mph
10:54 PM48.0 °F37.9 °F68 %30.11 inSE (140°)12.7 mph
11:54 PM46.9 °F37.0 °F68 %30.10 inSSE (160°)12.7 mph
Hourly data recorded from KMQE, located miles away from Hingham, Massachusetts







STORIES FROM OUR PARTNERS